[Iaude] MPEC T236: 2023 TE10 [a=1.10,e=0.27,i=6.7,H=27.5]

mpec at marsden.cfa.harvard.edu mpec at marsden.cfa.harvard.edu
Fri Oct 13 23:50:09 EDT 2023


M.P.E.C. 2023-T236                             Issued 2023 October 14, 03:48 UT

     The Minor Planet Electronic Circulars contain information on unusual
         minor planets, routine data on comets and natural satellites,
         and occasional editorial announcements.  They are published
    on behalf of Division F of the International Astronomical Union by the
          Minor Planet Center, Smithsonian Astrophysical Observatory,
                          Cambridge, MA 02138, U.S.A.
			  
             Prepared using the Tamkin Foundation Computer Network

                              MPC at CFA.HARVARD.EDU
            URL https://www.minorplanetcenter.net/    ISSN 1523-6714

                                   2023 TE10                                    


Observations:
     K23T10E* C2023 10 09.36766800 51 36.368-20 08 36.30         21.61wXET236F51
     K23T10E  C2023 10 09.39008600 51 36.857-20 08 01.63         21.95wXET236F51
     K23T10E  C2023 10 09.40287700 51 37.107-20 07 41.31         21.88wXET236F51
     K23T10E  C2023 10 09.48815100 51 38.734-20 05 18.00         22.25GVET236F51
     K23T10E  C2023 10 09.48896500 51 38.760-20 05 16.51         21.48GVET236F51
     K23T10E KC2023 10 10.36913 00 52 53.25 -19 43 41.5          22.5 GVET236291
     K23T10E KC2023 10 10.37812 00 52 53.46 -19 43 27.7          22.3 GVET236291
     K23T10E KC2023 10 10.38712 00 52 53.66 -19 43 13.6          22.8 GVET236291

Observer details:
291 LPL/Spacewatch II.  Observer M. J. Brucker.  1.8-m f/2.7 reflector + CCD.
F51 Pan-STARRS 1, Haleakala.  Observers J. Bulger, T. Lowe, P. Minguez, A.
    Schultz, I. Smith, K. Chambers.  Measurers K. Chambers, T. de Boer, J.
    Bulger, J. Fairlamb, H. Gao, M. Huber, C.-C. Lin, T. Lowe, E. Magnier, P.
    Minguez, Y. Ramanjooloo, A. Schultz, I. Smith, R. Wainscoat, R. Weryk, S.
    Chastel.  1.8-m Ritchey-Chretien + CCD.

Orbital elements:
2023 TE10                                                Earth MOID = 0.0017 AU
Epoch 2023 Sept. 13.0 TT = JDT 2460200.5                Bell                    
M  40.50455              (2000.0)            P               Q                  
n   0.85063307     Peri.   94.79436     +0.18454188     +0.98275145             
a   1.1031669      Node   185.88099     -0.94175355     +0.17332559             
e   0.2739812      Incl.    6.72297     -0.28114862     +0.06448123             
P   1.16           H   27.51          G   0.15           U   9                  
Residuals in seconds of arc
231009 F51  0.3-  0.0     231009 F51  0.1-  0.0     231010 291  0.1+  0.1-
231009 F51  0.1+  0.0     231009 F51  0.0   0.0     231010 291  0.0   0.2+
231009 F51  0.2+  0.0     231010 291  0.1-  0.1-

Ephemeris:
2023 TE10                a,e,i = 1.10, 0.27, 7                   q = 0.8009
Date    TT    R. A. (2000) Decl.     Delta      r    Elong.  Phase     V
2023 09 14    13 07 10.4 +14 56 28   0.09166 0.9258    27.4   150.0    30.6
...
2023 09 29    14 11 11.1 -02 05 16   0.0094360.9936    27.9   151.8    26.2
...
2023 10 07    00 46 20.2 -21 30 52   0.03507 1.0311   153.3    25.8    21.5
...
2023 10 13    00 55 35.4 -18 50 43   0.06796 1.0592   153.4    24.9    22.9
2023 10 14    00 56 19.5 -18 34 51   0.07354 1.0639   153.2    25.0    23.1
2023 10 15    00 56 57.9 -18 20 11   0.07915 1.0685   153.0    25.1    23.3
...
2023 10 21    00 59 46.8 -17 05 03   0.1136  1.0962   150.7    26.4    24.2
...
2023 10 29    01 02 52.2 -15 33 22   0.1618  1.1322   146.7    28.8    25.1
...
2023 11 13    01 10 25.7 -12 28 25   0.2610  1.1959   137.7    33.8    26.4

M. P. C. Staff               (C) Copyright 2023 MPC           M.P.E.C. 2023-T236





More information about the Iaude mailing list